Погода в Махачкале

Россия / Республика Дагестан     42°58′59″N   47°30′16″E
темп.,
°C
ветер,
м/с
пор.,
м/с
влажн.,
%
обл.,
%
осадки,
мм/ч
давл.,
гПа
погр.,
м
25 июня, сб
сб2500:00+21юв3476100 0.0 1009344
03:00+20юв34788 0.0 1009197
06:00+22юв347458 0.0 1009377
09:00+23в2263100 0.0 1009591
12:00+25всв335533 0.0 1009853
15:00+25всв335688 0.1 1008789
18:00+23с1266100 1.2 1009290
21:00+22зсз3466100 1.3 1009124
26 июня, вс
вс2600:00+22зсз3465100 0.0 1008116
03:00+21з3470100 0.1 1008158
06:00+21сз577596 0.0 1008317
09:00+26сз5653100 0.0 1007661
12:00+26ссз2351100 0.0 1007776
15:00+27ссв3448100 0.0 1005667
18:00+27с3547100 0.0 1005494
21:00+24зсз51066100 0.6 1007336
27 июня, пн
пн2700:00+23зсз81269100 0.4 1007437
03:00+22сз814730 0.4 1008471
06:00+23зсз713630 0.0 1008580
09:00+27сз1012540 0.0 1009830
12:00+29ссз79531 0.0 10091139
15:00+28с785033 0.0 1009768
18:00+27ссз685189 0.0 1009571
21:00+24сз8125999 0.0 1010373
28 июня, вт
вт2800:00+23зсз71260100 0.0 1009356
03:00+22зсз71061100 0.0 1009329
06:00+23зсз710561 0.0 1009545
09:00+27сз79470 0.0 1008966
12:00+29с810430 0.0 10071233
15:00+27ссв810540 0.0 10081005
18:00+26с57510 0.0 1010653
21:00+24зсз345363 0.1 1011119
29 июня, ср
ср2900:00+23з4552100 0.1 1011135
03:00+22зсз3451100 0.1 101094
06:00+23сз46480 0.0 1012228
09:00+28сз55360 0.0 1011747
12:00+28всв55450 0.0 1011968
15:00+25всв55666 0.0 1012838
18:00+23всв447341 0.0 1013798
21:00+22в3377100 0.1 1014641